"Pseudo-MPEC" for P20OuR8

Created 2019 Jun 15 19:09:57 UT using Find_Orb

Click here for an explanation of pseudo-MPECs

 
 Astrometry: 
     P20OuR8  C2019 06 01=xBZ0k+#4hs[_RQ[G:U9;*s)8vMpGEoMA)]24:!Wg6@BQA\a4QkaF52
     P20OuR8  C2019 06 01Z^]Q1TxV#Kx,bdtVeQCVH=xS8Z:L2`4FDqwU%O2(Tdhp(cLnnJ$pF52
     P20OuR8  C2019 06 01g$6rRX@#lTXq*DT^bvUj9'8.+Xsr\S/U_e3h6rCHCMFQe.NtxgV7F52
     P20OuR8  C2019 06 01OaS.ZD35SsgSCW%fYHm%23N-1ocEJ0S_6QL%+yYLR]WBZiA4.b/sF52
     P20OuR8 |C2019 06 02WrvVv`c[v;.Ua4L:7/KY%+I?%b[4[m`1I6qgLG(4(uk.5(qa;PFP807
     P20OuR8 |C2019 06 02@w8!eMHK_L09h2uh#wYeg;6(1fN)H'.Jl[Lrtx4_7VK2X9i/M.vB807
     P20OuR8 |C2019 06 02D$-0-kLUr4Yp,jD*X)v4TbFHRVO`,K+eYorJB'v0anG_K+=.[,=D807
     P20OuR8  C2019 06 02.38126 21 25 33.91 +01 31 03.1    ~629q 20.7 GVNEOCPI52
     P20OuR8  C2019 06 02.38422 21 25 34.19 +01 31 06.3    ~629q 20.4 GVNEOCPI52
     P20OuR8  C2019 06 02.38742 21 25 34.46 +01 31 09.9    ~629q 20.8 GVNEOCPI52
     P20OuR8  C2019 06 04.36400 21 28 14.22 +02 05 28.8    ~649M 21.1 GVNEOCPI52
     P20OuR8  C2019 06 04.36714 21 28 14.46 +02 05 32.3    ~649M 21.5 GVNEOCPI52
     P20OuR8  C2019 06 04.37028 21 28 14.72 +02 05 35.6    ~649M 20.8 GVNEOCPI52
     P20OuR8  C2019 06 04.37342 21 28 14.92 +02 05 38.5    ~649M 21.1 GVNEOCPI52
     P20OuR8  C2019 06 06.40612 21 30 52.35 +02 40 32.1    ~66AM 20.8 GVNEOCPI52
     P20OuR8  C2019 06 06.40883 21 30 52.54 +02 40 35.1    ~66AM 21.1 GVNEOCPI52
     P20OuR8  C2019 06 06.41149 21 30 52.73 +02 40 37.8    ~66AM 20.9 GVNEOCPI52
     P20OuR8  C2019 06 06.41416 21 30 52.97 +02 40 40.0    ~66AM 20.3 GVNEOCPI52
     P20OuR8  C2019 06 08.43714 21 33 22.66 +03 14 55.6    ~6927 21.0 GVNEOCPI52
     P20OuR8  C2019 06 08.45101 21 33 23.65 +03 15 09.9    ~6927 20.0 GVNEOCPI52
     P20OuR8 HC2019 06 09R?PbnjosOZ,E,0A3,QNUXO:][1E=b:J'j2O[[#0o/U!@viNq[`GO691
     P20OuR8 HC2019 06 09w\;Bx2_m\@]IJ*M)\^U5D]=p#=HTycvQu[D2V([?S)s5BOlWMOtC691
     P20OuR8 HC2019 06 09GQ`I+92'kb=iNMKcS\,/Vu++AbXp6rgArV.T!JKDRxp;Qvw7_S2k691
     P20OuR8  C2019 06 098.-q$DMP1iL^yZlT^qy6IIQy(k^6W)NekyAstrometryD5LNp8I4F51
     P20OuR8  C2019 06 09*$rU#b$9X%vI=2[G:F8:D'@s'jst:.XrZ4OC8U6qZ2twxUx9jSFKF51
     P20OuR8  C2019 06 09s?-m'XU_P5s%Xf4o]n[WEZgxMCBiHScUq0\)eu3I835(LN=]tQJLF51
     P20OuR8  C2019 06 11$mH*7p8TKcdaredacted;mO]),suyxG(*VGU(LH*09click!HmfWF51
     P20OuR8  C2019 06 11h3`%9jef,`@_aHUk$`N#j_Ea0LMAn:(sTL8t2x:q9L^tO_ZWbKXpF51
     P20OuR8  C2019 06 11XBv_jFc.L!(^SwVFm\+hejHC,M_xqatW%eW%(eQ^GikDE88\CZG3F51
     P20OuR8  C2019 06 11(js0*7.!R\XW!i6*.ABV13T0KFlnn[c^.shF[Dx=0?F#TBEdSXscF51
     P20OuR8  C2019 06 13*?0R$h=v6+vq)uh__-+90:[U$hhw,rq$Ktlh6C$u?O$nqd-%IGicF51
     P20OuR8  C2019 06 13(yBKgsW9jMqo!]ka;gZDEOc\ug)Pf=r7^FHhereQ6O#`PACA\9b]F51
     P20OuR8  C2019 06 13bkS%NNl1mCQdoh#;j.,?1lIRiEh(-+fIv?O$HAjoAY4d6)TEiNV[F51
     P20OuR8  C2019 06 13wc%BQ-*6MSgG(koJ5dhWwVu4:O3)Wi?/,D+^Q5NYC;K-OOvmr-D(F51
     P20OuR8 KC2019 06 14(2B2ELiiExui*3tsb-#3hdq;/iH.LQ@nc@t,/?_^bCL7hD3EXUdN691
     P20OuR8 KC2019 06 14L%8pMFBX@ju`e(I^A.Gd4^Z\mG:H1COj[E[AP!1Lv.e5OM\mat'=691
     P20OuR8 KC2019 06 14Vu?Kw*HLu)qmlC?$o5TW!fori`(%SDy[;00Z5-e]Z:f+-^x*#VTm691
     P20OuR8 KC2019 06 1401HrP%%NY`jiJJ$explanationXial)'wjeOOB+)5n]p@huFT`,wH21
     P20OuR8 KC2019 06 141W!i5^C2(bW_!:t=/2g)TcOpqj#o!4pDhgYL0EUMa22='`ZjLse#H21
     P20OuR8 KC2019 06 14w\mTQHBF0i%7S$lZ@Xl]_-q)Ys#:^Z7uMEOA(uQKTh%X4_xm,[,mH21

Station data:
(691) Steward Observatory, Kitt Peak - Spacewatch  (N31.962174 W111.600327)
   US/Arizona.  Observer J. V. Scotti. 0.9-m f/3 reflector + CCD.
(807) Cerro Tololo Observatory, La Serena  (S30.169136 W70.805900)  Chile.
(F51) Pan-STARRS 1, Haleakala  (N20.707235 W156.255910)  US/Hawaii.
   Observers N. Primak, A. Schultz, S. Watters, J. Thiel, T. Goggia. Measurer
   PS1 Science Consortium. 1.8-m Ritchey-Chrétien + CCD.
(F52) Pan-STARRS 2, Haleakala  (N20.707384 W156.255910)  US/Hawaii. 1.8-m
   Ritchey-Chrétien + CCD.
(H21) Astronomical Research Observatory, Westfield  (N39.483057 W87.968270)
   US/Illinois. 0.76-m f/3.0 astrograph + CCD.
(I52) Steward Observatory, Mt. Lemmon Station  (N32.442547 W110.788920)
   US/Arizona.  Observers T. A. Pruyne, B. M. Africano, E. J. Christensen, G.
   A. Farneth, D. C. Fuls, A. R. Gibbs, A. D. Grauer, H. Groeller, J. A.
   Johnson, R. A. Kowalski, S. M. Larson, G. J. Leonard, R. L. Seaman, F. C.
   Shelly. 1.0-m reflector + CCD.

Orbital elements:  P20OuR8
   Perihelion 2019 May 20.649244 +/- 0.0412 TT = 15:34:54 (JD 2458624.149244)
Epoch 2019 Jun 14.0 TT = JDT 2458648.5   Earth MOID: 0.6599   AutoNEOCP
M   5.32361767 +/- 0.032            (J2000 ecliptic)
n   0.21862227 +/- 0.00142          Peri.   60.02220 +/- 0.053
a   2.72901826 +/- 0.0119           Node   220.90305 +/- 0.06
e   0.3976103 +/- 0.00227           Incl.   10.80401 +/- 0.009
P   4.51                   H 18.2   G  0.15   U  8.3  
q 1.64393245 +/- 0.000995    Q 3.81410406 +/- 0.0233
From 40 observations 2019 June 1-14; mean residual 0".23
Residuals in arcseconds: 
190601 F52  .02+  .21+    190606 I52  .00   .13+    190611 F51  .06+  .12-    
190601 F52  .07+  .19+    190606 I52  .13-  .35+    190611 F51  .09-  .18-    
190601 F52  .22+  .16+    190606 I52  .20-  .33+    190613 F51  .09-  .29-    
190601 F52  .00   .14+    190606 I52  .47+  .21-    190613 F51  .06-  .30-    
190602 807  .02+  .18+    190608 I52  .24-  .01-    190613 F51  .13-  .26-    
190602 807  .13-  .23+    190608 I52  .18+  .29+    190613 F51  .06-  .22-    
190602 807  .29-  .12-    190609 691  .33-  .34+    190614 691  .16+  .49+    
190602 I52  .58-  .55-    190609 691  .14-  .30-    190614 691  .04+  .03+    
190602 I52  .06+  .45-    190609 691  .19+  .27+    190614 691  .36-  .48+    
190602 I52  .26+  .20-    190609 F51  .04+  .08-    190614 H21  .07+  .08-    
190604 I52  .20+  .18-    190609 F51  .05+  .06-    190614 H21  .17+  .01-    
190604 I52  .17+  .06+    190609 F51  .06+  .10-    190614 H21  .21+  .05-    
190604 I52  .43+  .11+    190611 F51  .00   .06-    
190604 I52  .20-  .25-    190611 F51  .03+  .20-    

Ephemerides (geocentric):
Date (UTC) HH   RA              Dec         delta   r     elong  mag " sig PA
---- -- -- --  -------------   -----------  ------ ------ -----  --- ---- ---
2019 06 15 19  21 41 26.986   +05 14 45.60  .96884 1.6587 113.4 20.6 .178 139
2019 06 15 20  21 41 29.454   +05 15 24.83  .96862 1.6587 113.4 20.6 .181 139
2019 06 15 21  21 41 31.919   +05 16 04.05  .96841 1.6588 113.4 20.6 .184 139
2019 06 15 22  21 41 34.380   +05 16 43.24  .96819 1.6588 113.4 20.6 .187 139
2019 06 15 23  21 41 36.838   +05 17 22.42  .96798 1.6589 113.5 20.6 .190 139
2019 06 16 00  21 41 39.293   +05 18 01.58  .96777 1.6589 113.5 20.6 .193 139
2019 06 16 01  21 41 41.745   +05 18 40.72  .96755 1.6590 113.5 20.6 .196 138
2019 06 16 02  21 41 44.194   +05 19 19.84  .96734 1.6590 113.5 20.6 .199 138
2019 06 16 03  21 41 46.639   +05 19 58.95  .96712 1.6591 113.6 20.6 .203 138
2019 06 16 04  21 41 49.081   +05 20 38.03  .96691 1.6591 113.6 20.6 .206 138
2019 06 16 05  21 41 51.520   +05 21 17.10  .96669 1.6592 113.6 20.6 .209 138
2019 06 16 06  21 41 53.956   +05 21 56.14  .96648 1.6592 113.6 20.6 .212 138
2019 06 16 07  21 41 56.388   +05 22 35.17  .96627 1.6592 113.7 20.6 .216 138
2019 06 16 08  21 41 58.818   +05 23 14.18  .96605 1.6593 113.7 20.6 .219 138
2019 06 16 09  21 42 01.244   +05 23 53.17  .96584 1.6593 113.7 20.6 .222 138
2019 06 16 10  21 42 03.666   +05 24 32.15  .96563 1.6594 113.7 20.6 .225 138
2019 06 16 11  21 42 06.086   +05 25 11.10  .96541 1.6594 113.7 20.6 .229 137
2019 06 16 12  21 42 08.502   +05 25 50.03  .96520 1.6595 113.8 20.6 .232 137
2019 06 16 13  21 42 10.916   +05 26 28.95  .96499 1.6595 113.8 20.6 .235 137
2019 06 16 14  21 42 13.326   +05 27 07.84  .96477 1.6596 113.8 20.6 .239 137
2019 06 16 15  21 42 15.732   +05 27 46.72  .96456 1.6596 113.8 20.6 .242 137
2019 06 16 16  21 42 18.136   +05 28 25.58  .96435 1.6597 113.9 20.6 .246 137
2019 06 16 17  21 42 20.536   +05 29 04.42  .96414 1.6597 113.9 20.6 .249 137
2019 06 16 18  21 42 22.933   +05 29 43.24  .96392 1.6598 113.9 20.6 .253 137
2019 06 16 19  21 42 25.327   +05 30 22.04  .96371 1.6598 113.9 20.6 .256 137
2019 06 16 20  21 42 27.717   +05 31 00.82  .96350 1.6599 114.0 20.6 .260 137
2019 06 16 21  21 42 30.104   +05 31 39.58  .96329 1.6599 114.0 20.6 .263 137
2019 06 16 22  21 42 32.488   +05 32 18.33  .96307 1.6600 114.0 20.6 .267 136
2019 06 16 23  21 42 34.869   +05 32 57.05  .96286 1.6600 114.0 20.6 .270 136
2019 06 17 00  21 42 37.247   +05 33 35.76  .96265 1.6601 114.1 20.6 .274 136
2019 06 17 01  21 42 39.621   +05 34 14.44  .96244 1.6601 114.1 20.6 .277 136
2019 06 17 02  21 42 41.992   +05 34 53.11  .96223 1.6602 114.1 20.6 .281 136
2019 06 17 03  21 42 44.360   +05 35 31.76  .96201 1.6602 114.1 20.6 .285 136
2019 06 17 04  21 42 46.724   +05 36 10.38  .96180 1.6603 114.1 20.6 .288 136
2019 06 17 05  21 42 49.086   +05 36 48.99  .96159 1.6603 114.2 20.6 .292 136
2019 06 17 06  21 42 51.444   +05 37 27.58  .96138 1.6604 114.2 20.6 .296 136
2019 06 17 07  21 42 53.799   +05 38 06.15  .96117 1.6604 114.2 20.6 .299 136
2019 06 17 08  21 42 56.150   +05 38 44.70  .96096 1.6605 114.2 20.6 .303 136
2019 06 17 09  21 42 58.498   +05 39 23.23  .96075 1.6605 114.3 20.6 .307 136
2019 06 17 10  21 43 00.843   +05 40 01.74  .96054 1.6606 114.3 20.6 .311 136
2019 06 17 11  21 43 03.185   +05 40 40.23  .96033 1.6606 114.3 20.6 .315 135
2019 06 17 12  21 43 05.524   +05 41 18.70  .96012 1.6607 114.3 20.6 .318 135
2019 06 17 13  21 43 07.859   +05 41 57.15  .95990 1.6607 114.4 20.6 .322 135
2019 06 17 14  21 43 10.191   +05 42 35.58  .95969 1.6608 114.4 20.6 .326 135
2019 06 17 15  21 43 12.519   +05 43 13.99  .95948 1.6608 114.4 20.6 .330 135
2019 06 17 16  21 43 14.845   +05 43 52.38  .95927 1.6609 114.4 20.6 .334 135
2019 06 17 17  21 43 17.167   +05 44 30.75  .95906 1.6609 114.5 20.6 .338 135
2019 06 17 18  21 43 19.486   +05 45 09.11  .95885 1.6610 114.5 20.6 .342 135